Location: ????????
(54.9045°N, 39.1041°E)
Time: 05:59:57
(UTC+00:00)

USA 215 - Visible Passes

Search period start: 16 July 2024 00:00
Search period end: 26 July 2024 00:00
Orbit: 1100 x 1107 km, 123.0° (Epoch: 22 April)

Date Brightness Start Highest point End Pass type
(mag) Time Alt. Az. Time Alt. Az. Time Alt. Az.
16 Jul 5.1 19:33:23 10° SSW 19:37:13 16° WSW 19:41:05 10° W visible
17 Jul 4.5 18:48:11 10° S 18:53:44 29° SW 18:59:19 10° WNW visible
18 Jul 5.1 19:50:56 10° SSW 19:54:44 16° WSW 19:58:34 10° W visible
19 Jul 4.5 19:05:43 10° S 19:11:15 29° SW 19:16:49 10° WNW visible
20 Jul 5.0 20:08:28 10° SSW 20:12:15 16° WSW 20:16:03 10° W visible
21 Jul 4.4 19:23:16 10° S 19:28:45 29° SW 19:34:19 10° WNW visible
22 Jul 3.9 18:39:14 10° SSE 18:45:30 46° SW 18:51:48 10° WNW visible
22 Jul 5.0 20:26:01 10° SSW 20:29:45 16° WSW 20:33:32 10° W visible
23 Jul 4.4 19:41:25 13° S 19:46:16 28° SW 19:51:49 10° WNW visible
24 Jul 3.8 18:56:49 10° SSE 19:03:00 46° SW 19:09:18 10° WNW visible
24 Jul 5.0 20:44:09 12° SSW 20:47:16 16° WSW 20:51:01 10° W visible
25 Jul 4.4 19:59:33 15° S 20:03:47 28° SW 20:09:19 10° WNW visible
